�N����,����,�g�[���i���ԁj���x,�g�[�����x,��g�[���i���ցj���x,����
 2003/10/01, 0:00,20.9,52,20.8,22.6
 2003/10/01, 0:15,20.8,53,20.7,22.6
 2003/10/01, 0:30,20.7,53,20.7,22.5
 2003/10/01, 0:45,20.6,53.5,20.8,22.5
 2003/10/01, 1:00,20.5,54,20.7,22.5
 2003/10/01, 1:15,20.4,54,20.5,22.4
 2003/10/01, 1:30,20.3,54,20.5,22.4
 2003/10/01, 1:45,20.2,54,20.4,22.3
 2003/10/01, 2:00,20.2,54,20.3,22.2
 2003/10/01, 2:15,20,55,20.2,22.2
 2003/10/01, 2:30,20,55,20.2,22.1
 2003/10/01, 2:45,19.9,55,20,22.1
 2003/10/01, 3:00,19.8,55,20,22
 2003/10/01, 3:15,19.6,56,20,22
 2003/10/01, 3:30,19.6,56,19.8,21.9
 2003/10/01, 3:45,19.5,56,19.8,21.8
 2003/10/01, 4:00,19.4,56,19.6,21.7
 2003/10/01, 4:15,19.3,57,19.5,21.6
 2003/10/01, 4:30,19.2,57,19.4,21.6
 2003/10/01, 4:45,19.1,57,19.4,21.5
 2003/10/01, 5:00,19,57,19.3,21.5
 2003/10/01, 5:15,19,57.5,19.2,21.4
 2003/10/01, 5:30,18.8,58,19.1,21.3
 2003/10/01, 5:45,18.8,58,19,21.2
 2003/10/01, 6:00,18.7,58,19,21.2
 2003/10/01, 6:15,18.6,58,19,21.1
 2003/10/01, 6:30,18.5,58,18.9,21
 2003/10/01, 6:45,18.5,58.5,19,21
 2003/10/01, 7:00,18.4,58,19.1,20.9
 2003/10/01, 7:15,18.5,58,19.1,20.8
 2003/10/01, 7:30,18.6,59,19.2,20.7
 2003/10/01, 7:45,18.8,58,19.2,21.5
 2003/10/01, 8:00,19.1,57,19.3,22.3
 2003/10/01, 8:15,19.8,56,19.5,22.1
 2003/10/01, 8:30,20.1,56,19.6,22
 2003/10/01, 8:45,20.5,55,19.6,21.9
 2003/10/01, 9:00,21,54,19.7,21.8
 2003/10/01, 9:15,21.8,52.5,19.7,21.7
 2003/10/01, 9:30,22.4,51,19.8,21.7
 2003/10/01, 9:45,23,47,20.1,21.6
 2003/10/01,10:00,24,43,20.3,21.6
 2003/10/01,10:15,25,39,20.5,21.5
 2003/10/01,10:30,27.5,33,20.7,21.5
 2003/10/01,10:45,27,34,20.9,21.5
 2003/10/01,11:00,26,35,21.1,21.5
 2003/10/01,11:15,25.8,36,21.3,21.5
 2003/10/01,11:30,26,35,21.5,21.5
 2003/10/01,11:45,26,34,21.8,21.5
 2003/10/01,12:00,26,36,22,21.5
 2003/10/01,12:15,26.1,35,22.4,21.2
 2003/10/01,12:30,26.1,32,22.6,21.2
 2003/10/01,12:45,26.3,28.5,22.9,21.2
 2003/10/01,13:00,26.2,25,22.9,21.2
 2003/10/01,13:15,26.5,27.5,23.4,21.2
 2003/10/01,13:30,26.3,28,23.8,21.3
 2003/10/01,13:45,26.2,29.5,24.2,21.3
 2003/10/01,14:00,26.1,30,24.6,21.3
 2003/10/01,14:15,26.4,32,25,21.4
 2003/10/01,14:30,26.4,34,25.5,21.4
 2003/10/01,14:45,26.1,35,26.1,21.5
 2003/10/01,15:00,26,37,26.6,21.5
 2003/10/01,15:15,26,38,26.9,21.6
 2003/10/01,15:30,25.9,37,26.8,21.6
 2003/10/01,15:45,25.4,38.5,26.6,21.7
 2003/10/01,16:00,25,41,26.5,21.7
 2003/10/01,16:15,24.6,41.5,26.2,21.8
 2003/10/01,16:30,24.6,43,26.1,21.9
 2003/10/01,16:45,24.2,43.5,25.6,21.9
 2003/10/01,17:00,23.9,44,25.3,22
 2003/10/01,17:15,24,45.5,24.9,22.1
 2003/10/01,17:30,23.9,46,24.6,22.1
 2003/10/01,17:45,23.8,47,24.4,22.2
 2003/10/01,18:00,23.6,47,24.2,22.3
 2003/10/01,18:15,23.5,47,24.1,22.3
 2003/10/01,18:30,23.5,47,24,22.4
 2003/10/01,18:45,23.5,47.5,23.9,22.5
 2003/10/01,19:00,23.4,47,23.8,22.5
 2003/10/01,19:15,23.4,48,23.6,22.5
 2003/10/01,19:30,23.3,48,23.6,22.6
 2003/10/01,19:45,23.3,49.5,23.5,22.6
 2003/10/01,20:00,23.3,50,23.5,22.7
 2003/10/01,20:15,23.3,51,23.4,22.8
 2003/10/01,20:30,23.3,51,23.3,22.8
 2003/10/01,20:45,23.3,51.5,23.3,22.8
 2003/10/01,21:00,23.2,52,23.2,22.9
 2003/10/01,21:15,23.1,52,23.1,22.9
 2003/10/01,21:30,23.1,52,23.1,22.9
 2003/10/01,21:45,23.1,52,23,23
 2003/10/01,22:00,23.2,52,22.9,23
 2003/10/01,22:15,23,53,22.9,23
 2003/10/01,22:30,23,53,22.9,23.1
 2003/10/01,22:45,23,54.5,22.9,23.1
 2003/10/01,23:00,22.9,55,22.8,23.1
 2003/10/01,23:15,22.8,55.5,22.8,23.1
 2003/10/01,23:30,22.7,56,22.7,23.2
 2003/10/01,23:45,22.7,56,22.7,23.2
 2003/10/02, 0:00,22.7,57,22.6,23.2
 2003/10/02, 0:15,22.6,57,22.6,23.2
 2003/10/02, 0:30,22.6,57,22.6,23.2
 2003/10/02, 0:45,22.5,56.5,22.5,23.2
 2003/10/02, 1:00,22.5,57,22.5,23.3
 2003/10/02, 1:15,22.5,57,22.5,23.3
 2003/10/02, 1:30,22.5,57,22.5,23.3
 2003/10/02, 1:45,22.4,57,22.5,23.3
 2003/10/02, 2:00,22.4,57,22.4,23.3
 2003/10/02, 2:15,22.4,57,22.4,23.3
 2003/10/02, 2:30,22.4,57,22.4,23.3
 2003/10/02, 2:45,22.2,57.5,22.3,23.3
 2003/10/02, 3:00,22.3,58,22.3,23.3
 2003/10/02, 3:15,22.2,58,22.3,23.3
 2003/10/02, 3:30,22.2,58,22.3,23.3
 2003/10/02, 3:45,22.2,59,22.3,23.3
 2003/10/02, 4:00,22.2,59,22.3,23.3
 2003/10/02, 4:15,22.1,60,22.2,23.3
 2003/10/02, 4:30,22.1,60,22.2,23.3
 2003/10/02, 4:45,22.1,60,22.1,23.3
 2003/10/02, 5:00,22,61,22.1,23.3
 2003/10/02, 5:15,22,61,22.1,23.3
 2003/10/02, 5:30,22,61,22,23.3
 2003/10/02, 5:45,22,61,22,23.3
 2003/10/02, 6:00,21.9,61,22,23.3
 2003/10/02, 6:15,21.9,61,22,23.3
 2003/10/02, 6:30,21.8,62,22,23.3
 2003/10/02, 6:45,21.8,62,22,23.2
 2003/10/02, 7:00,21.8,62,22.1,23.2
 2003/10/02, 7:15,21.8,62.5,22.2,23.2
 2003/10/02, 7:30,21.9,67,22.2,23.2
 2003/10/02, 7:45,21.9,68,22.2,22
 2003/10/02, 8:00,22.1,67,22.4,22
 2003/10/02, 8:15,22.4,65.5,22.5,22.2
 2003/10/02, 8:30,22.8,62,22.6,22.4
 2003/10/02, 8:45,23,60.5,22.9,22.4
 2003/10/02, 9:00,23.1,59,23.1,22.4
 2003/10/02, 9:15,23.2,58.5,23.1,22.4
 2003/10/02, 9:30,23.4,58,23,22.4
 2003/10/02, 9:45,23.5,57.5,23,22.5
 2003/10/02,10:00,23.9,57,23.1,22.5
 2003/10/02,10:15,23.8,56.5,23.1,22.5
 2003/10/02,10:30,24.9,55,23.2,22.5
 2003/10/02,10:45,26.6,48.5,23.5,22.5
 2003/10/02,11:00,27.9,47,24,22.5
 2003/10/02,11:15,26.9,47.5,24.1,22.6
 2003/10/02,11:30,26.2,49,24.2,22.6
 2003/10/02,11:45,25.8,50.5,24.2,22.6
 2003/10/02,12:00,25.5,52,24.4,22.7
 2003/10/02,12:15,25.3,52.5,24.4,22.7
 2003/10/02,12:30,25.1,54,24.4,22.7
 2003/10/02,12:45,25,54.5,24.6,22.8
 2003/10/02,13:00,25.5,54,25,22.8
 2003/10/02,13:15,25.5,54.5,25.1,22.8
 2003/10/02,13:30,25.3,56,25.2,22.8
 2003/10/02,13:45,25.2,55,25.1,22.9
 2003/10/02,14:00,25.2,54,25.2,22.9
 2003/10/02,14:15,25.3,54.5,25.5,23
 2003/10/02,14:30,25.3,55,25.4,23
 2003/10/02,14:45,25.1,56,25.3,23
 2003/10/02,15:00,25.1,57,25.3,23.1
 2003/10/02,15:15,25,57.5,25.3,23.1
 2003/10/02,15:30,25,58,25.3,23.2
 2003/10/02,15:45,25,58,25.3,23.2
 2003/10/02,16:00,24.9,58,25.2,23.3
 2003/10/02,16:15,24.7,56,25.1,23.3
 2003/10/02,16:30,24.7,55,25.2,23.4
 2003/10/02,16:45,24.8,55,25.4,23.4
 2003/10/02,17:00,25.2,54,25.4,23.5
 2003/10/02,17:15,24.9,53,25,23.5
 2003/10/02,17:30,24.5,53,24.8,23.6
 2003/10/02,17:45,24.5,54.5,24.6,23.6
 2003/10/02,18:00,24.4,56,24.4,23.6
 2003/10/02,18:15,24.2,56,24.4,23.7
 2003/10/02,18:30,24.2,56,24.3,23.7
 2003/10/02,18:45,24.1,56,24.2,23.8
 2003/10/02,19:00,24,56,24.1,23.8
 2003/10/02,19:15,24,56,24,23.8
 2003/10/02,19:30,23.9,57,24,23.9
 2003/10/02,19:45,23.9,56.5,23.9,23.9
 2003/10/02,20:00,23.6,55,23.7,23.9
 2003/10/02,20:15,23.4,54,23.5,23.9
 2003/10/02,20:30,23.2,54,23.4,23.9
 2003/10/02,20:45,23.1,54.5,23.3,24
 2003/10/02,21:00,23.1,56,23.2,24
 2003/10/02,21:15,23,56,23.1,24
 2003/10/02,21:30,23,57,23.1,24
 2003/10/02,21:45,22.9,57,23,24
 2003/10/02,22:00,22.9,57,22.9,24
 2003/10/02,22:15,22.8,57,22.9,24
 2003/10/02,22:30,22.8,58,22.8,24
 2003/10/02,22:45,22.7,58,22.8,24
 2003/10/02,23:00,22.7,58,22.8,23.9
 2003/10/02,23:15,22.7,59,22.7,23.9
 2003/10/02,23:30,22.7,59,22.6,23.9
 2003/10/02,23:45,22.7,59,22.6,23.9
 2003/10/03, 0:00,22.6,59,22.6,23.9
 2003/10/03, 0:15,22.6,59,22.5,23.9
 2003/10/03, 0:30,22.5,59,22.5,23.8
 2003/10/03, 0:45,22.5,59,22.4,23.8
 2003/10/03, 1:00,22.4,59,22.4,23.8
 2003/10/03, 1:15,22.4,59.5,22.3,23.7
 2003/10/03, 1:30,22.3,61,22.3,23.7
 2003/10/03, 1:45,22.2,60.5,22.3,23.7
 2003/10/03, 2:00,22.1,61,22.2,23.7
 2003/10/03, 2:15,22,61,22.1,23.6
 2003/10/03, 2:30,21.9,61,22.1,23.6
 2003/10/03, 2:45,21.9,61,22,23.5
 2003/10/03, 3:00,21.8,61,21.9,23.5
 2003/10/03, 3:15,21.8,62,21.9,23.5
 2003/10/03, 3:30,21.7,62,21.9,23.4
 2003/10/03, 3:45,21.6,62,21.8,23.4
 2003/10/03, 4:00,21.5,62,21.7,23.4
 2003/10/03, 4:15,21.5,62,21.7,23.3
 2003/10/03, 4:30,21.4,63,21.6,23.3
 2003/10/03, 4:45,21.4,63,21.6,23.2
 2003/10/03, 5:00,21.3,63,21.5,23.2
 2003/10/03, 5:15,21.3,63,21.5,23.2
 2003/10/03, 5:30,21.2,63,21.5,23.1
 2003/10/03, 5:45,21.2,63,21.5,23.1
 2003/10/03, 6:00,21.1,63,21.4,23.1
 2003/10/03, 6:15,21.1,63,21.3,23
 2003/10/03, 6:30,21.1,63,21.3,23
 2003/10/03, 6:45,21,63,21.3,23
 2003/10/03, 7:00,21,63,21.4,23
 2003/10/03, 7:15,21,63,21.4,22.9
 2003/10/03, 7:30,21,62,21.4,22.9
 2003/10/03, 7:45,21.2,62,21.5,22.1
 2003/10/03, 8:00,21.4,62,21.6,21.4
 2003/10/03, 8:15,21.8,61.5,21.7,21.4
 2003/10/03, 8:30,22.1,60,21.8,21.4
 2003/10/03, 8:45,22.7,58,22,21.5
 2003/10/03, 9:00,23.4,55,22.2,21.5
 2003/10/03, 9:15,23.7,54,22.4,21.5
 2003/10/03, 9:30,23.5,54,22.6,21.5
 2003/10/03, 9:45,23.6,54,22.6,21.5
 2003/10/03,10:00,23.5,55,22.8,22.2
 2003/10/03,10:15,23.5,56,23,22.2
 2003/10/03,10:30,23.5,57,23,22.2
 2003/10/03,10:45,24.5,53.5,23,22.2
 2003/10/03,11:00,26.7,47,23.3,22.3
 2003/10/03,11:15,25.1,51,23.4,22.3
 2003/10/03,11:30,24.5,53,23.3,22.3
 2003/10/03,11:45,24.7,53,23.5,22.3
 2003/10/03,12:00,24.6,53,23.5,22.3
 2003/10/03,12:15,25.9,50,23.7,22.3
 2003/10/03,12:30,26,48,24,22.4
 2003/10/03,12:45,25.9,49,24,22.4
 2003/10/03,13:00,26,49,24.2,22.4
 2003/10/03,13:15,26.8,47,24.7,22.5
 2003/10/03,13:30,26.9,47,25,22.5
 2003/10/03,13:45,27.2,46,25.4,22.5
 2003/10/03,14:00,27.3,45,26,22.5
 2003/10/03,14:15,26.8,46.5,26,22.6
 2003/10/03,14:30,26,47,25.8,22.6
 2003/10/03,14:45,25.6,49,25.7,22.6
 2003/10/03,15:00,25.4,50,25.6,22.7
 2003/10/03,15:15,25.5,49.5,25.9,22.7
 2003/10/03,15:30,25.9,49,26.3,22.8
 2003/10/03,15:45,25.6,49,26.5,22.8
 2003/10/03,16:00,25.2,51,26.7,22.9
 2003/10/03,16:15,25,50.5,26.9,22.9
 2003/10/03,16:30,24.9,51,26.6,23
 2003/10/03,16:45,25,51,26.7,23
 2003/10/03,17:00,24.7,51,26.1,23.1
 2003/10/03,17:15,24.5,51,25.6,23.1
 2003/10/03,17:30,24.4,50,25.2,23.2
 2003/10/03,17:45,24.1,51,24.9,23.2
 2003/10/03,18:00,24,51,24.6,23.3
 2003/10/03,18:15,23.9,51.5,24.4,23.4
 2003/10/03,18:30,23.7,52,24.2,23.4
 2003/10/03,18:45,23.5,52,24,23.5
 2003/10/03,19:00,23.3,52,23.8,23.5
 2003/10/03,19:15,23.1,53,23.6,23.5
 2003/10/03,19:30,23.1,53,23.4,23.6
 2003/10/03,19:45,22.9,53,23.3,23.6
 2003/10/03,20:00,22.7,53,23.2,23.7
 2003/10/03,20:15,22.6,53,23,23.7
 2003/10/03,20:30,22.5,53,22.9,23.7
 2003/10/03,20:45,22.4,53,22.8,23.8
 2003/10/03,21:00,22.4,54,22.7,23.8
 2003/10/03,21:15,22.2,54,22.6,23.8
 2003/10/03,21:30,22.2,54,22.5,23.8
 2003/10/03,21:45,22.1,54.5,22.4,23.9
 2003/10/03,22:00,22.1,55,22.3,23.9
 2003/10/03,22:15,22,54.5,22.2,23.9
 2003/10/03,22:30,21.9,55,22.2,23.9
 2003/10/03,22:45,21.8,55,22,23.9
 2003/10/03,23:00,21.8,55,22,23.9
 2003/10/03,23:15,21.8,56,21.9,23.9
 2003/10/03,23:30,21.7,56,21.9,23.9
 2003/10/03,23:45,21.6,56,21.8,23.9
 2003/10/04, 0:00,21.5,57,21.7,23.9
 2003/10/04, 0:15,21.5,57.5,21.6,23.8
 2003/10/04, 0:30,21.4,58,21.6,23.8
 2003/10/04, 0:45,21.4,58,21.5,23.8
 2003/10/04, 1:00,21.3,58,21.5,23.7
 2003/10/04, 1:15,21.3,58,21.5,23.7
 2003/10/04, 1:30,21.3,58,21.4,23.7
 2003/10/04, 1:45,21.2,57.5,21.4,23.6
 2003/10/04, 2:00,21.2,58,21.3,23.6
 2003/10/04, 2:15,21.1,58,21.2,23.6
 2003/10/04, 2:30,21,58,21.1,23.5
 2003/10/04, 2:45,21,58,21.1,23.5
 2003/10/04, 3:00,20.9,58,21,23.1
 2003/10/04, 3:15,20.8,58,21,23
 2003/10/04, 3:30,20.8,58,21,23
 2003/10/04, 3:45,20.6,59,20.9,23
 2003/10/04, 4:00,20.6,60,20.8,22.9
 2003/10/04, 4:15,20.5,60.5,20.7,22.9
 2003/10/04, 4:30,20.4,61,20.6,22.9
 2003/10/04, 4:45,20.4,61,20.6,22.8
 2003/10/04, 5:00,20.2,61,20.5,22.8
 2003/10/04, 5:15,20.2,61,20.4,22.8
 2003/10/04, 5:30,20,61,20.3,22.7
 2003/10/04, 5:45,20,61,20.2,22.7
 2003/10/04, 6:00,19.9,61,20.1,22.6
 2003/10/04, 6:15,19.8,61,20.2,22.6
 2003/10/04, 6:30,19.8,61,20.2,22.5
 2003/10/04, 6:45,19.7,61,20.2,22.5
 2003/10/04, 7:00,19.7,61,20.2,22.5
 2003/10/04, 7:15,19.7,61,20.3,22.4
 2003/10/04, 7:30,19.8,61,20.4,22.4
 2003/10/04, 7:45,19.9,61,20.4,22.3
 2003/10/04, 8:00,20,60,20.5,22.3
 2003/10/04, 8:15,20.1,60,20.5,22.3
 2003/10/04, 8:30,20.3,59,20.6,22.2
 2003/10/04, 8:45,20.5,58,20.8,22.2
 2003/10/04, 9:00,20.7,58,20.9,22.2
 2003/10/04, 9:15,20.9,57.5,21,22.1
 2003/10/04, 9:30,21.1,57,21.1,22.1
 2003/10/04, 9:45,21.4,56,21.2,22.1
 2003/10/04,10:00,23.1,48,21.5,22.1
 2003/10/04,10:15,25.6,39,21.5,22.1
 2003/10/04,10:30,27.3,38,21.9,22.1
 2003/10/04,10:45,28.6,35,22.1,22.1
 2003/10/04,11:00,29.1,35,22.4,21.9
 2003/10/04,11:15,28.5,37.5,22.8,22.3
 2003/10/04,11:30,28.1,39,23.1,22.3
 2003/10/04,11:45,28.4,38.5,23.4,22.3
 2003/10/04,12:00,27.2,41,23.5,22.3
 2003/10/04,12:15,27,42.5,23.7,22.3
 2003/10/04,12:30,26.7,43,23.9,22.3
 2003/10/04,12:45,26.8,43,24,22.4
 2003/10/04,13:00,25.5,45,24,22.4
 2003/10/04,13:15,25.4,47,24.1,22.5
 2003/10/04,13:30,25.1,49,24.3,22.6
 2003/10/04,13:45,24.8,48.5,24.4,22.6
 2003/10/04,14:00,25,49,24.4,22.6
 2003/10/04,14:15,25,46.5,24.6,22.7
 2003/10/04,14:30,24.9,46,24.7,22.7
 2003/10/04,14:45,24.6,44.5,24.5,22.7
 2003/10/04,15:00,25.2,43,24.9,22.8
 2003/10/04,15:15,25.5,42,25.4,22.8
 2003/10/04,15:30,25.6,41,25.6,22.9
 2003/10/04,15:45,25.2,43,25.6,22.9
 2003/10/04,16:00,24.7,43,25.1,22.9
 2003/10/04,16:15,23.8,44,24.5,23
 2003/10/04,16:30,23.1,45,23.9,23
 2003/10/04,16:45,22.6,46.5,23.5,23
 2003/10/04,17:00,22.2,47,23.3,23.1
 2003/10/04,17:15,21.9,48,23,23.1
 2003/10/04,17:30,21.7,49,22.6,23.2
 2003/10/04,17:45,21.5,49.5,22.5,23.2
 2003/10/04,18:00,21.3,51,22.3,23.2
 2003/10/04,18:15,21.4,53,22.2,23.2
 2003/10/04,18:30,21.5,54,22.2,23.3
 2003/10/04,18:45,21.4,52.5,22,23.3
 2003/10/04,19:00,21.4,53,21.9,23.3
 2003/10/04,19:15,21.5,54.5,21.9,23.3
 2003/10/04,19:30,21.3,54,21.8,23.3
 2003/10/04,19:45,21.1,53,21.6,23.3
 2003/10/04,20:00,21.3,54,21.6,23.3
 2003/10/04,20:15,21.3,55,21.5,23.3
 2003/10/04,20:30,21.3,56,21.5,23.3
 2003/10/04,20:45,21.2,56,21.4,23.3
 2003/10/04,21:00,21.2,56,21.3,23.3
 2003/10/04,21:15,21,54,21.1,23.3
 2003/10/04,21:30,21,55,21.1,23.3
 2003/10/04,21:45,21,54.5,21,23.2
 2003/10/04,22:00,20.8,54,21,23.2
 2003/10/04,22:15,20.8,54,20.8,23.1
 2003/10/04,22:30,20.6,54,20.7,23.1
 2003/10/04,22:45,20.6,54,20.7,23
 2003/10/04,23:00,20.5,54,20.6,23
 2003/10/04,23:15,20.5,54,20.5,23
 2003/10/04,23:30,20.3,54,20.5,22.9
 2003/10/04,23:45,20.3,54.5,20.4,22.9
 2003/10/05, 0:00,20.2,55,20.3,22.8
 2003/10/05, 0:15,20.1,56,20.2,22.8
 2003/10/05, 0:30,19.9,56,20.1,21.4
 2003/10/05, 0:45,19.9,56,20,21.4
 2003/10/05, 1:00,19.8,57,20,21.3
 2003/10/05, 1:15,19.8,56.5,19.9,21.3
 2003/10/05, 1:30,19.6,57,19.8,21.3
 2003/10/05, 1:45,19.6,57.5,19.7,21.3
 2003/10/05, 2:00,19.5,58,19.6,21.2
 2003/10/05, 2:15,19.4,58.5,19.6,21.2
 2003/10/05, 2:30,19.4,59,19.6,21.2
 2003/10/05, 2:45,19.3,59,19.5,21.1
 2003/10/05, 3:00,19.2,58,19.4,21.1
 2003/10/05, 3:15,19.2,58,19.4,21
 2003/10/05, 3:30,19.1,58,19.3,21
 2003/10/05, 3:45,19,59,19.2,20.9
 2003/10/05, 4:00,19,59,19.2,20.9
 2003/10/05, 4:15,18.9,59,19.1,20.9
 2003/10/05, 4:30,18.8,59,19.1,20.8
 2003/10/05, 4:45,18.8,60,19,20.7
 2003/10/05, 5:00,18.8,60,19,20.7
 2003/10/05, 5:15,18.7,60,19,20.6
 2003/10/05, 5:30,18.7,60,18.9,20.6
 2003/10/05, 5:45,18.6,60,18.9,20.5
 2003/10/05, 6:00,18.6,60,18.8,20.5
 2003/10/05, 6:15,18.5,60,18.8,20.4
 2003/10/05, 6:30,18.5,60,18.8,20.4
 2003/10/05, 6:45,18.5,60,18.8,20.3
 2003/10/05, 7:00,18.4,60,18.9,20.3
 2003/10/05, 7:15,18.4,60,18.9,20.2
 2003/10/05, 7:30,18.4,60,19,20.2
 2003/10/05, 7:45,18.5,60,19,20.1
 2003/10/05, 8:00,18.6,60,19.2,20.1
 2003/10/05, 8:15,18.7,60,19.3,20
 2003/10/05, 8:30,18.8,60,19.3,20
 2003/10/05, 8:45,19,59,19.6,20
 2003/10/05, 9:00,19.1,59,19.8,20
 2003/10/05, 9:15,19.2,59,19.9,20
 2003/10/05, 9:30,19.5,59,20.2,20
 2003/10/05, 9:45,19.6,58,20.4,20
 2003/10/05,10:00,19.7,57,20.6,20
 2003/10/05,10:15,20,57,20.6,20
 2003/10/05,10:30,21.3,54,20.8,20
 2003/10/05,10:45,22,51.5,21.1,20
 2003/10/05,11:00,23.1,47,21.5,20
 2003/10/05,11:15,23.8,47.5,21.8,20
 2003/10/05,11:30,23.8,48,22,20
 2003/10/05,11:45,23.6,49,22.1,20.1
 2003/10/05,12:00,23.4,45,22.1,20.1
 2003/10/05,12:15,24.1,40,22.3,20.1
 2003/10/05,12:30,25,39,22.9,20.2
 2003/10/05,12:45,24.9,39,23.1,20.2
 2003/10/05,13:00,25.5,35,23.7,20.3
 2003/10/05,13:15,25,38,23.9,20.4
 2003/10/05,13:30,24.5,41,24,20.4
 2003/10/05,13:45,24.1,41.5,23.8,20.5
 2003/10/05,14:00,24,42,23.8,20.5
 2003/10/05,14:15,23.8,42,23.6,20.5
 2003/10/05,14:30,23.7,43,23.8,20.6
 2003/10/05,14:45,23.7,44,24,20.6
 2003/10/05,15:00,23.5,43,23.9,20.7
 2003/10/05,15:15,23.4,44.5,23.6,21.2
 2003/10/05,15:30,23.2,45,23.4,21.8
 2003/10/05,15:45,23,43,23.4,21.8
 2003/10/05,16:00,22.9,42,23.4,21.9
 2003/10/05,16:15,22.6,42,23,21.9
 2003/10/05,16:30,22.4,42,22.8,21.9
 2003/10/05,16:45,22.2,42,22.6,22.1
 2003/10/05,17:00,22.2,44,22.6,22.3
 2003/10/05,17:15,22.2,47,22.4,22.3
 2003/10/05,17:30,22.2,50,22.3,22.3
 2003/10/05,17:45,22.1,50.5,22.2,22.3
 2003/10/05,18:00,22.1,51,22.2,22.4
 2003/10/05,18:15,22.1,52,22,22.4
 2003/10/05,18:30,22,51,21.9,22.4
 2003/10/05,18:45,22,50,21.9,22.5
 2003/10/05,19:00,22,53,21.8,22.5
 2003/10/05,19:15,22.1,54.5,21.6,22.5
 2003/10/05,19:30,22.2,56,21.6,22.5
 2003/10/05,19:45,22.3,56.5,21.5,22.5
 2003/10/05,20:00,22.2,57,21.5,21.4
 2003/10/05,20:15,22.2,57,21.5,21.4
 2003/10/05,20:30,22.2,58,21.4,21.4
 2003/10/05,20:45,22.2,58,21.3,21.5
 2003/10/05,21:00,22.2,59,21.2,21.5
 2003/10/05,21:15,22.2,59.5,21.1,21.5
 2003/10/05,21:30,22.1,59,21.1,21.5
 2003/10/05,21:45,22.1,59.5,21.1,21.5
 2003/10/05,22:00,22.1,60,21,21.6
 2003/10/05,22:15,22,59.5,21,21.6
 2003/10/05,22:30,21.9,60,21,21.6
 2003/10/05,22:45,21.8,59,20.9,21.6
 2003/10/05,23:00,21.8,59,20.9,21.6
 2003/10/05,23:15,21.8,60,20.9,21.6
 2003/10/05,23:30,21.7,60,20.9,21.6
 2003/10/05,23:45,21.8,60,20.8,21.6
 2003/10/06, 0:00,21.8,60,20.8,21.2
 2003/10/06, 0:15,21.8,61,20.7,21.2
 2003/10/06, 0:30,21.7,61,20.7,21.2
 2003/10/06, 0:45,21.5,61,20.7,21.2
 2003/10/06, 1:00,21.5,60,20.6,21.2
 2003/10/06, 1:15,21.4,59.5,20.6,21.2
 2003/10/06, 1:30,21.2,59,20.6,21.2
 2003/10/06, 1:45,21,59,20.6,21.2
 2003/10/06, 2:00,20.9,58,20.5,21.1
 2003/10/06, 2:15,20.9,59,20.5,21.1
 2003/10/06, 2:30,20.7,59,20.4,21.1
 2003/10/06, 2:45,20.6,59,20.4,21.1
 2003/10/06, 3:00,20.6,59,20.3,21.1
 2003/10/06, 3:15,20.5,59,20.3,21.1
 2003/10/06, 3:30,20.5,60,20.3,21.1
 2003/10/06, 3:45,20.4,59.5,20.2,21
 2003/10/06, 4:00,20.3,60,20.1,21
 2003/10/06, 4:15,20.2,60.5,20.1,21
 2003/10/06, 4:30,20.1,61,20,21
 2003/10/06, 4:45,20.1,61,20,21
 2003/10/06, 5:00,20,61,19.9,21
 2003/10/06, 5:15,19.9,61,19.9,20.9
 2003/10/06, 5:30,19.9,61,19.9,20.9
 2003/10/06, 5:45,19.8,62,19.8,20.9
 2003/10/06, 6:00,19.8,62,19.7,20.9
 2003/10/06, 6:15,19.7,62,19.7,20.9
 2003/10/06, 6:30,19.6,62,19.7,20.8
 2003/10/06, 6:45,19.5,62,19.6,20.8
 2003/10/06, 7:00,19.5,62,19.6,20.8
 2003/10/06, 7:15,19.4,62,19.6,20.8
 2003/10/06, 7:30,19.4,62,19.6,20.8
 2003/10/06, 7:45,19.5,62,19.6,20.4
 2003/10/06, 8:00,19.5,64,19.6,20.3
 2003/10/06, 8:15,19.5,64,19.6,20.3
 2003/10/06, 8:30,19.6,65,19.6,20.3
 2003/10/06, 8:45,19.6,65,19.6,20.3
 2003/10/06, 9:00,19.6,65,19.6,20.3
 2003/10/06, 9:15,19.6,64.5,19.6,20.3
 2003/10/06, 9:30,19.6,64,19.5,20.2
 2003/10/06, 9:45,19.7,64,19.5,20.2
 2003/10/06,10:00,19.7,64,19.6,20.2
 2003/10/06,10:15,19.7,63.5,19.5,20.2
 2003/10/06,10:30,19.7,64,19.5,20.2
 2003/10/06,10:45,19.8,65,19.5,20.1
 2003/10/06,11:00,19.7,65,19.6,20.1
 2003/10/06,11:15,19.5,65,19.5,20.1
 2003/10/06,11:30,19.5,65,19.5,20.1
 2003/10/06,11:45,19.4,65.5,19.5,20.1
 2003/10/06,12:00,19.3,66,19.4,20
 2003/10/06,12:15,19.3,66,19.5,20
 2003/10/06,12:30,19.3,66,19.5,20
 2003/10/06,12:45,19.3,66,19.5,20
 2003/10/06,13:00,19.2,66,19.5,20
 2003/10/06,13:15,19.2,67,19.5,20
 2003/10/06,13:30,19.2,67,19.5,20
 2003/10/06,13:45,19.2,67,19.5,20
 2003/10/06,14:00,19.2,67,19.6,19.9
 2003/10/06,14:15,19.2,67,19.6,19.9
 2003/10/06,14:30,19.2,67,19.6,19.9
 2003/10/06,14:45,19.2,66.5,19.5,19.9
 2003/10/06,15:00,19.2,67,19.5,19.9
 2003/10/06,15:15,19.2,67,19.6,19.9
 2003/10/06,15:30,19.2,66,19.6,19.9
 2003/10/06,15:45,19.2,67,19.5,19.9
 2003/10/06,16:00,19.1,67,19.5,19.9
 2003/10/06,16:15,19.1,67,19.7,19.9
 2003/10/06,16:30,19.1,67,19.5,19.9
 2003/10/06,16:45,19,67,19.4,19.8
 2003/10/06,17:00,19,67,19.3,19.8
 2003/10/06,17:15,19,66.5,19.3,19.8
 2003/10/06,17:30,18.9,66,19.2,19.8
 2003/10/06,17:45,18.8,66,19.1,19.8
 2003/10/06,18:00,18.8,66,19,19.8
 2003/10/06,18:15,18.6,65,18.9,19.8
 2003/10/06,18:30,18.5,65,18.8,19.8
 2003/10/06,18:45,18.5,65,18.8,19.8
 2003/10/06,19:00,18.5,65,18.7,19.7
 2003/10/06,19:15,18.4,65,18.6,19.7
 2003/10/06,19:30,18.5,66,18.6,19.7
 2003/10/06,19:45,18.5,67,18.6,19.6
 2003/10/06,20:00,18.6,68,18.6,19.6
 2003/10/06,20:15,18.6,67.5,18.5,19.6
 2003/10/06,20:30,18.7,68,18.5,19.5
 2003/10/06,20:45,18.7,68,18.4,19.5
 2003/10/06,21:00,18.7,68,18.3,19.5
 2003/10/06,21:15,18.7,67,18.2,19.4
 2003/10/06,21:30,18.8,67,18.1,19.4
 2003/10/06,21:45,18.8,67,18.1,19.4
 2003/10/06,22:00,18.8,67,18.1,19.3
 2003/10/06,22:15,18.8,66.5,18,19.3
 2003/10/06,22:30,18.8,66,18,19.3
 2003/10/06,22:45,18.9,66.5,18,19.2
 2003/10/06,23:00,18.8,67,18,19.2
 2003/10/06,23:15,18.9,69,17.9,19.1
 2003/10/06,23:30,18.9,70,17.9,19.1
 2003/10/06,23:45,18.9,70,17.9,19.1
 2003/10/07, 0:00,19,70,17.9,19.1
 2003/10/07, 0:15,19,72,17.9,19
 2003/10/07, 0:30,19,71,17.9,19
 2003/10/07, 0:45,19,71,17.9,19
 2003/10/07, 1:00,19,71,17.8,18.9
 2003/10/07, 1:15,19,70,17.8,18.9
 2003/10/07, 1:30,18.9,70,17.8,18.9
 2003/10/07, 1:45,18.9,70,17.8,18.9
 2003/10/07, 2:00,18.9,70,17.8,18.8
 2003/10/07, 2:15,18.8,69.5,17.8,18.8
 2003/10/07, 2:30,18.8,69,17.7,18.8
 2003/10/07, 2:45,18.6,69,17.7,18.8
 2003/10/07, 3:00,18.5,67,17.7,18.7
 2003/10/07, 3:15,18.4,67,17.7,18.7
 2003/10/07, 3:30,18.2,67,17.7,18.7
 2003/10/07, 3:45,18,67.5,17.6,18.6
 2003/10/07, 4:00,17.9,68,17.6,18.6
 2003/10/07, 4:15,17.9,68,17.6,18.6
 2003/10/07, 4:30,17.8,68,17.6,18.6
 2003/10/07, 4:45,17.7,68.5,17.5,18.6
 2003/10/07, 5:00,17.7,68,17.5,18.5
 2003/10/07, 5:15,17.5,68,17.4,18.5
 2003/10/07, 5:30,17.5,68,17.4,18.5
 2003/10/07, 5:45,17.5,68,17.4,18.5
 2003/10/07, 6:00,17.4,67,17.3,18.5
 2003/10/07, 6:15,17.4,67,17.4,18.4
 2003/10/07, 6:30,17.3,67,17.3,18.4
 2003/10/07, 6:45,17.2,67,17.4,18.4
 2003/10/07, 7:00,17.2,67,17.4,18.4
 2003/10/07, 7:15,17.2,67,17.5,18.4
 2003/10/07, 7:30,17.3,66,17.5,18.3
 2003/10/07, 7:45,17.5,66,17.5,19.9
 2003/10/07, 8:00,17.6,67,17.6,19.9
 2003/10/07, 8:15,17.9,66.5,17.8,19.8
 2003/10/07, 8:30,18,65,17.9,19.7
 2003/10/07, 8:45,18.2,64.5,18,19.6
 2003/10/07, 9:00,18.3,64,18.2,19.6
 2003/10/07, 9:15,18.4,63,18.2,19.6
 2003/10/07, 9:30,18.5,64,18.4,19.5
 2003/10/07, 9:45,18.6,64.5,18.5,19.5
 2003/10/07,10:00,19,63,18.7,19.5
 2003/10/07,10:15,19,64,19,19.5
 2003/10/07,10:30,19.2,63,19.1,19.5
 2003/10/07,10:45,19.5,62,19.4,19.5
 2003/10/07,11:00,19.6,62,19.5,19.4
 2003/10/07,11:15,19.6,62,19.7,19.4
 2003/10/07,11:30,19.7,62,19.9,19.4
 2003/10/07,11:45,19.8,61.5,19.9,19.4
 2003/10/07,12:00,19.8,62,20,19.5
 2003/10/07,12:15,20,62,20.2,19.5
 2003/10/07,12:30,20.2,61,20.3,19.5
 2003/10/07,12:45,20.2,61,20.5,19.5
 2003/10/07,13:00,20.4,60,20.6,19.5
 2003/10/07,13:15,20.4,60,20.6,19.5
 2003/10/07,13:30,20.5,60,20.8,19.5
 2003/10/07,13:45,20.5,60.5,20.9,19.6
 2003/10/07,14:00,20.5,61,20.9,19.6
 2003/10/07,14:15,20.5,60,21,19.6
 2003/10/07,14:30,20.6,60,21.2,19.7
 2003/10/07,14:45,20.9,60,21.4,19.7
 2003/10/07,15:00,20.9,60,21.4,19.7
 2003/10/07,15:15,20.9,61,21.4,19.8
 2003/10/07,15:30,20.9,60,21.4,19.8
 2003/10/07,15:45,20.9,61,21.3,19.8
 2003/10/07,16:00,20.8,61,21.3,19.9
 2003/10/07,16:15,20.8,61.5,21.3,19.9
 2003/10/07,16:30,20.8,61,21.2,19.9
 2003/10/07,16:45,20.8,61.5,21,20
 2003/10/07,17:00,20.7,62,21,20
 2003/10/07,17:15,20.6,61.5,20.9,20
 2003/10/07,17:30,20.6,60,20.7,20.1
 2003/10/07,17:45,20.5,60,20.6,20.1
 2003/10/07,18:00,20.5,61,20.6,20.2
 2003/10/07,18:15,20.4,62.5,20.5,20.2
 2003/10/07,18:30,20.4,63,20.5,20.2
 2003/10/07,18:45,20.4,63.5,20.4,20.3
 2003/10/07,19:00,20.3,64,20.5,20.3
 2003/10/07,19:15,20.4,64,20.5,20.4